Theta_e
274 274 274 274 275 275 275 275 275 276 276 276 276 276 276 276 276 276 276 276 277 277 277 277 277 277 277 277 277 277 277 277 277 277 278 279 280 282 283 285 286 288 288 289 290 290 290 291 291 292 292 293 294 296 298 301 303 304 306 307 308 309 309 310 311 312 313 313 313 314 315 316 318 318
273 273 273 274 274 274 274 274 275 275 275 275 275 275 275 275 275 275 276 276 276 277 276 276 276 277 277 276 277 277 277 277 276 276 277 278 279 280 281 283 285 286 288 289 289 289 289 289 290 291 292 292 293 294 294 297 300 302 304 306 306 308 308 308 308 308 311 313 313 313 313 314 317 317
272 272 272 272 273 273 273 273 273 274 274 274 274 274 274 275 275 275 275 275 275 276 276 276 276 276 276 276 276 276 276 276 276 276 276 276 277 278 279 281 283 285 286 287 289 289 288 288 289 290 291 292 293 293 294 295 296 298 300 303 305 306 306 307 307 306 307 309 311 312 313 314 316 316
271 271 271 272 272 272 272 272 273 273 273 273 274 274 274 274 274 274 274 275 275 275 275 275 275 275 275 275 275 275 275 275 275 275 275 275 276 277 278 279 281 283 284 286 288 289 288 288 288 289 290 291 293 294 294 294 295 296 297 299 302 304 305 305 305 305 306 306 306 307 309 312 314 315
271 271 271 271 271 271 272 272 272 272 273 273 273 273 273 273 274 274 274 274 274 274 274 274 274 275 275 274 274 274 274 275 275 275 275 275 275 276 277 278 279 281 283 284 286 288 289 288 287 288 289 290 292 294 295 295 295 295 296 296 298 300 302 303 304 304 305 305 305 305 305 306 309 312
271 271 272 272 272 272 272 272 272 272 272 273 273 273 273 273 273 273 273 273 274 274 274 274 274 274 274 274 274 274 274 274 274 275 274 274 275 275 276 277 278 279 281 283 284 286 288 289 288 287 288 289 290 293 295 295 295 295 295 296 296 297 298 299 301 302 303 303 304 305 304 304 305 307
272 272 272 272 272 272 272 273 273 272 272 272 272 272 272 273 273 273 273 273 273 273 273 273 273 273 274 274 274 274 274 274 274 274 274 274 275 275 275 276 277 278 279 281 282 284 287 288 288 287 287 288 289 291 293 295 295 295 295 295 296 296 296 296 297 299 301 302 303 304 304 304 303 304
272 272 273 273 273 273 273 273 273 273 273 272 272 272 272 272 272 272 272 272 273 273 273 273 273 273 273 273 273 274 274 274 274 274 274 274 274 275 275 275 276 277 278 279 281 283 284 287 288 288 287 287 288 289 292 294 296 296 295 295 296 296 296 295 295 296 297 299 301 302 303 303 303 303
272 273 273 274 274 274 274 274 274 274 274 273 272 272 272 271 272 272 272 272 272 272 272 272 272 272 272 273 273 273 273 273 273 274 274 274 274 274 275 275 275 276 277 278 279 281 282 284 286 287 288 287 287 287 289 292 294 296 296 296 296 296 296 295 295 295 295 296 297 299 301 302 302 303
272 273 274 274 275 275 275 275 275 274 274 273 273 272 272 272 271 271 271 271 271 271 271 271 272 272 272 272 272 272 272 273 273 273 273 274 274 275 275 275 275 275 276 277 277 279 280 282 284 286 287 287 287 287 287 289 291 294 296 297 296 296 296 295 295 295 295 295 295 296 298 299 300 301
273 274 274 275 275 275 275 275 275 274 274 273 273 273 273 272 272 271 271 271 271 271 271 271 271 272 272 272 272 272 272 272 273 273 273 274 274 275 275 275 275 275 275 276 276 277 278 280 282 283 285 287 287 287 287 287 288 290 293 296 297 297 296 295 295 296 296 295 295 295 295 296 297 298
274 274 275 275 275 276 276 275 275 274 274 274 273 273 273 273 272 272 272 271 271 271 271 271 271 271 272 272 272 272 272 272 273 273 273 274 274 275 275 275 275 275 275 276 276 276 277 278 280 281 283 285 286 287 287 286 287 288 290 292 294 296 297 295 294 295 296 295 295 295 295 295 295 296
274 275 275 275 276 276 275 275 275 275 274 274 274 273 273 273 273 273 272 272 271 271 271 271 271 271 271 272 272 272 272 272 273 273 273 274 274 274 274 274 275 275 275 276 276 276 277 277 278 280 281 283 284 286 286 286 286 287 288 289 291 293 294 294 293 294 294 295 295 295 295 295 294 295
275 275 275 276 276 276 275 275 275 274 274 274 274 274 273 273 273 273 273 272 272 271 270 270 271 271 271 271 272 272 272 272 272 272 273 273 273 274 274 274 274 275 275 276 277 277 278 278 278 278 280 281 283 284 285 286 286 286 286 287 288 289 291 292 292 292 292 293 293 294 294 294 295 295
275 276 276 276 276 275 275 275 275 274 274 274 274 274 274 273 273 273 273 273 272 271 270 270 271 271 271 271 271 272 272 272 272 272 272 272 273 273 273 274 275 275 276 277 278 278 279 280 280 280 279 280 281 283 285 286 286 286 286 286 287 287 288 289 290 290 291 291 292 292 293 293 294 294
275 276 276 276 276 275 275 275 274 274 274 274 274 274 273 273 273 273 273 273 272 272 271 271 271 271 271 271 272 272 272 272 272 272 272 272 272 272 273 273 274 275 276 276 277 278 279 280 281 281 281 280 280 281 283 284 285 285 286 286 286 286 287 288 288 289 290 290 290 291 291 291 292 293
275 276 276 276 276 275 275 274 274 274 274 274 274 274 273 273 273 272 271 271 271 272 272 272 272 272 271 271 272 272 272 272 272 272 272 272 272 272 273 273 274 275 275 275 276 278 279 280 281 282 282 282 281 281 281 282 283 284 285 285 285 285 286 286 287 288 289 289 289 290 290 290 290 291
275 275 276 276 276 275 275 274 274 274 274 274 274 274 274 273 273 272 271 271 271 271 272 272 273 273 272 272 272 272 272 272 272 272 272 272 272 272 273 273 274 275 275 276 277 277 278 280 280 281 282 283 282 282 282 282 282 283 283 284 284 285 285 285 286 287 287 288 288 288 289 289 289 290
275 275 275 276 276 275 275 275 275 274 274 274 274 274 274 274 274 273 273 273 272 272 272 272 273 273 273 273 273 273 273 272 273 273 273 273 272 273 273 274 274 275 276 277 277 278 279 280 280 281 282 282 282 282 283 283 283 282 283 283 284 284 284 284 285 285 286 287 288 288 288 288 288 288
275 275 275 275 276 275 275 276 276 275 275 275 275 275 275 275 274 274 274 274 274 274 273 273 273 274 274 274 273 273 273 273 273 273 273 273 273 273 274 275 275 276 277 277 278 278 279 280 280 280 281 282 282 282 282 283 283 282 282 283 284 284 284 284 284 284 285 286 286 287 287 288 287 287
274 275 275 275 275 275 275 276 276 276 276 276 276 275 275 275 275 275 275 275 275 275 274 274 274 274 274 274 274 273 273 273 273 273 273 273 273 273 274 275 276 277 277 278 278 279 279 280 280 280 281 281 282 282 282 283 283 283 282 282 283 283 283 283 284 284 284 285 285 286 286 287 287 287
274 274 275 275 275 275 275 276 276 276 276 276 276 276 276 275 275 275 275 275 275 275 275 275 275 274 275 275 274 274 274 274 274 274 273 273 274 274 274 275 276 277 277 278 278 279 279 280 280 280 281 282 282 282 283 283 283 283 283 282 282 282 283 283 283 283 284 284 284 285 285 286 286 286
273 274 275 275 275 275 275 276 276 276 276 276 276 276 276 276 275 275 275 276 276 276 276 276 276 275 275 275 275 275 275 275 275 275 274 274 274 274 274 275 276 276 277 278 279 279 280 280 280 280 281 282 282 283 283 283 283 283 284 283 282 282 282 283 283 283 283 284 284 284 284 285 285 285
272 273 275 275 275 276 276 276 276 276 276 276 276 276 276 276 276 276 276 276 276 276 276 276 276 276 276 276 275 275 275 275 275 275 275 275 274 274 275 275 275 276 277 279 279 279 280 280 280 281 281 282 283 283 283 283 283 283 284 284 283 283 283 283 283 283 283 283 284 284 284 284 284 284
272 273 274 275 275 276 276 276 277 277 276 277 276 276 276 276 276 276 276 277 277 277 277 277 276 276 276 276 276 276 276 275 275 275 275 275 275 275 276 276 275 276 278 279 278 279 279 280 280 281 281 282 283 283 284 284 284 283 283 283 283 284 283 283 283 283 283 283 283 283 283 284 284 284
272 273 274 275 275 276 276 277 277 277 277 277 277 277 277 276 276 277 277 277 277 277 277 277 276 276 276 277 277 276 276 276 276 276 276 276 276 276 277 277 277 277 278 279 278 279 279 279 280 281 282 282 282 283 284 284 284 284 284 283 283 284 284 284 283 283 283 283 283 283 283 283 283 283
273 273 273 274 275 276 276 277 277 277 277 278 277 277 277 277 277 277 277 277 277 277 276 276 276 276 276 277 277 277 277 277 277 277 277 277 277 277 277 277 278 278 278 278 279 279 279 279 280 281 281 282 282 283 283 284 284 284 284 284 283 283 284 284 284 284 284 284 284 284 284 284 284 284
273 273 273 274 275 276 276 277 277 278 278 278 277 277 277 277 277 277 277 277 277 277 277 277 277 276 276 277 277 277 277 277 277 277 277 277 277 277 277 278 278 278 278 278 279 279 279 279 280 281 281 282 282 282 283 283 284 284 284 284 284 284 284 284 284 284 284 284 284 285 285 285 285 285
272 273 273 274 275 276 276 277 277 278 278 278 277 277 277 277 277 277 277 277 276 276 277 277 277 277 277 277 277 277 277 277 277 277 277 277 277 277 277 278 278 278 278 278 278 279 279 280 280 280 281 281 282 282 282 283 284 284 284 284 284 284 284 284 284 284 284 284 284 284 284 284 285 285
272 273 273 274 275 276 276 277 277 277 277 277 277 277 277 277 277 277 277 276 276 276 276 277 277 277 278 277 277 277 277 277 277 277 277 277 278 278 278 278 278 278 278 278 279 279 279 280 280 280 281 281 281 281 282 282 283 283 283 283 283 284 284 284 284 284 284 284 284 284 284 284 284 284
271 272 273 274 275 276 276 277 277 277 277 277 277 276 276 276 276 276 276 275 275 275 276 276 277 277 278 278 278 278 278 278 277 277 277 278 278 278 278 278 278 278 279 279 279 279 280 280 280 280 281 281 281 281 281 281 282 283 283 283 283 283 283 284 284 284 284 284 284 284 284 285 285 285
271 272 272 273 274 275 276 276 277 277 277 276 276 276 276 275 275 275 275 275 275 275 275 276 276 276 277 278 278 278 278 278 278 278 278 278 278 278 278 279 278 278 278 279 279 279 280 280 280 280 280 281 281 281 281 281 281 282 282 282 283 283 283 283 283 283 284 284 284 284 285 285 285 285
271 271 272 273 274 275 275 276 276 276 276 276 276 275 275 275 275 275 275 275 275 275 275 275 275 276 276 277 277 277 278 278 279 279 279 279 279 279 279 279 279 278 278 278 279 279 279 280 280 280 280 281 280 281 281 281 281 281 281 282 283 283 283 283 283 283 283 283 284 284 284 284 285 285
270 271 272 273 274 274 275 276 276 276 276 276 275 275 275 275 275 275 275 275 275 275 275 275 275 275 276 276 276 276 277 277 278 278 279 279 279 279 279 279 279 278 278 278 279 279 279 280 280 280 280 280 280 281 281 281 281 281 281 281 282 283 283 282 282 282 283 283 283 283 283 284 284 284
270 271 272 273 274 275 275 275 276 275 275 275 275 274 275 275 274 274 274 274 275 275 275 275 275 275 275 275 275 276 276 276 277 277 278 278 279 279 279 279 279 279 279 279 279 279 279 279 280 280 280 280 280 280 280 280 281 281 281 280 281 282 282 282 282 282 282 283 283 283 282 283 283 283
270 271 272 273 274 275 275 275 275 275 274 274 274 274 274 274 274 274 274 274 275 275 275 275 275 275 275 275 275 275 275 276 276 277 277 278 278 279 279 279 279 279 279 279 279 279 279 279 279 280 280 280 280 280 280 281 280 280 281 281 281 281 282 282 282 282 282 282 283 282 282 282 282 283
270 271 272 272 273 274 275 275 275 274 274 274 274 274 274 274 274 274 274 274 274 275 275 275 275 275 275 275 275 275 275 276 276 276 276 277 278 278 279 279 279 279 280 280 279 279 280 280 280 280 280 280 280 280 280 280 280 280 280 281 281 281 281 282 281 281 282 282 283 282 282 282 282 282
269 270 271 272 273 273 274 274 274 274 274 274 274 274 274 274 274 274 274 274 274 274 274 274 275 275 275 275 275 275 275 276 276 276 276 277 277 278 278 279 279 279 279 280 280 280 280 280 280 280 280 280 280 280 280 280 280 280 281 281 281 281 281 281 281 281 282 282 282 282 282 282 282 282
269 270 270 271 272 273 273 273 273 273 273 274 274 274 274 274 273 273 273 273 273 274 274 274 274 274 275 275 275 275 275 276 276 276 277 277 277 278 278 278 279 279 279 279 279 279 280 280 280 280 280 280 280 280 280 280 280 281 281 281 281 281 281 281 281 281 281 282 282 282 282 282 282 282
269 270 270 271 272 272 273 273 273 273 273 273 273 274 274 274 273 273 273 273 273 273 273 274 274 274 275 275 275 275 275 276 276 277 277 277 277 278 278 278 278 279 279 279 279 279 279 279 279 279 279 279 280 280 281 281 281 281 281 281 281 281 281 281 281 281 281 282 282 282 282 282 282 283
270 270 271 272 272 273 273 273 273 273 273 273 273 273 273 273 273 273 273 273 273 273 273 274 274 274 275 275 275 275 276 276 276 277 277 278 278 278 278 278 278 278 279 279 279 279 279 279 279 279 279 279 280 280 281 281 281 281 281 281 281 281 281 281 281 281 281 282 282 282 282 282 282 282
271 271 271 272 273 273 273 273 273 273 273 273 273 273 273 273 273 273 273 272 273 273 273 274 274 274 275 275 276 276 276 276 276 276 277 277 278 277 278 278 277 277 278 279 279 279 280 280 280 280 280 280 280 280 280 280 280 281 281 281 281 281 281 281 281 281 281 281 282 282 281 281 282 282
272 272 272 272 273 273 273 273 273 273 272 272 273 273 273 273 273 273 272 272 273 273 273 274 274 274 275 275 276 276 276 276 276 276 277 277 277 277 277 277 277 277 278 278 279 279 280 280 280 280 280 280 280 280 280 280 280 281 281 281 281 281 281 281 281 281 281 281 282 281 281 281 282 282
271 272 272 272 272 272 272 272 272 272 272 272 272 272 272 273 272 272 272 272 273 273 273 273 274 274 275 275 275 276 276 277 277 276 277 277 277 276 277 278 278 278 278 279 279 279 280 280 280 280 280 280 280 280 280 280 280 281 281 281 281 281 281 282 282 282 281 282 281 281 281 281 282 282
270 271 271 272 272 272 272 272 272 272 272 272 272 272 272 272 272 272 272 272 273 273 273 273 274 274 274 275 275 276 276 277 277 277 277 277 277 277 277 278 278 279 279 279 279 279 280 280 280 280 280 280 280 280 280 280 280 280 281 281 281 281 282 282 282 282 282 282 281 281 281 281 281 282
Wind_Speed
24 22 21 21 21 20 19 19 20 19 18 17 18 18 18 20 21 21 19 17 14 10 9 8 7 6 5 4 6 7 9 8 8 13 14 14 18 20 22 23 23 22 21 21 17 14 13 13 12 10 10 11 13 13 13 15 18 18 17 15 9 7 10 14 17 23 27 30 33 34 34 33 31 34
29 27 25 23 22 22 21 21 21 21 21 20 20 20 19 19 21 21 21 20 16 11 10 8 7 7 6 7 8 9 9 8 8 13 15 14 15 18 20 22 23 23 23 23 20 16 14 14 14 13 11 11 12 12 12 13 15 17 19 20 17 13 9 4 4 11 18 22 26 32 37 36 33 35
29 28 28 28 25 24 22 21 22 21 21 21 20 20 19 19 20 20 21 22 18 13 11 11 10 10 9 10 13 13 14 14 14 17 20 20 17 17 19 21 22 23 24 25 24 20 17 15 16 16 14 12 12 12 12 12 13 15 17 20 22 20 16 13 10 4 8 14 15 19 27 33 35 35
28 27 29 30 30 27 23 20 20 19 19 18 16 15 16 16 17 16 17 20 20 16 13 14 13 12 11 12 14 16 18 19 18 18 20 21 19 17 18 20 22 24 25 26 26 24 21 18 18 18 17 15 14 14 13 12 13 15 16 17 21 23 21 19 18 15 9 5 5 6 10 17 25 30
30 30 31 31 31 29 26 23 21 18 17 16 13 13 15 15 16 16 16 19 21 18 14 13 13 12 12 13 13 14 16 16 16 15 16 19 21 18 16 18 21 23 25 27 27 26 25 22 20 19 19 18 17 16 14 12 13 16 16 16 18 21 22 23 22 20 17 14 11 7 2 4 10 18
30 30 30 31 30 29 28 27 25 22 20 17 13 13 15 16 15 16 17 18 20 19 15 12 13 12 12 13 13 13 14 14 13 14 15 18 19 18 16 16 19 22 24 27 28 27 27 26 24 21 21 21 20 18 16 15 16 17 16 15 17 19 20 22 22 22 21 20 17 14 12 8 4 6
27 26 26 26 26 25 24 24 24 25 24 22 18 13 13 16 16 15 16 17 18 19 17 15 13 12 12 13 12 12 13 13 13 14 16 16 16 16 17 16 17 19 22 26 29 29 29 29 28 26 23 22 23 22 20 18 19 18 18 17 17 18 19 20 20 21 22 23 22 20 19 17 14 10
24 24 23 23 23 22 23 23 22 23 24 25 23 19 15 14 14 14 15 17 17 18 19 18 15 13 13 13 13 12 13 14 14 15 16 15 15 16 17 16 16 17 20 24 28 29 30 30 31 30 27 25 24 24 23 22 21 20 19 20 20 19 19 18 19 20 20 22 23 23 23 22 21 19
24 24 23 22 22 22 22 22 22 22 22 23 25 26 24 20 17 14 14 16 17 18 20 21 20 18 17 16 15 15 16 16 16 16 16 15 15 15 15 14 14 16 18 20 24 28 30 31 32 32 31 28 27 27 26 25 24 23 22 22 22 21 20 19 18 18 18 19 21 22 23 24 23 22
25 24 23 22 22 22 21 21 20 21 21 22 23 24 26 26 24 21 17 15 15 17 19 21 23 22 19 17 17 16 15 15 15 14 14 14 12 10 11 12 13 14 17 18 20 23 27 30 32 33 34 33 31 29 29 28 28 26 25 24 24 24 23 21 19 18 17 17 17 18 20 22 21 22
25 24 23 23 22 21 20 18 16 17 18 20 21 22 22 23 24 24 21 17 16 17 19 20 23 23 20 18 17 16 14 14 14 13 13 14 12 8 8 10 12 13 14 15 16 19 23 27 30 33 35 35 35 33 32 31 31 30 29 28 26 26 25 23 22 19 18 17 16 16 17 18 19 20
25 24 23 23 22 20 17 14 13 12 12 14 17 18 20 21 22 22 21 20 20 21 22 22 23 22 20 18 16 14 12 13 13 12 12 13 11 9 9 9 10 10 11 13 15 16 19 23 27 31 33 35 36 35 34 33 33 32 31 31 30 28 27 26 25 23 21 20 19 17 17 17 17 18
25 24 24 23 21 18 16 14 12 12 12 12 13 14 15 17 18 20 21 21 22 22 22 22 20 18 18 19 16 14 13 12 11 10 10 11 10 10 11 11 10 10 11 12 14 15 16 18 22 26 31 34 35 36 35 34 34 33 33 33 32 31 30 29 28 26 25 23 22 21 19 18 18 17
25 24 24 22 20 18 17 15 14 14 14 15 15 15 15 15 15 17 19 20 21 21 20 20 17 14 15 16 15 15 14 12 12 12 11 10 10 10 11 12 10 7 7 8 11 12 11 13 17 21 26 31 33 35 37 36 35 34 33 33 34 33 33 32 31 30 28 27 25 24 22 21 20 19
26 24 24 22 20 19 19 17 16 16 16 17 17 17 17 17 17 17 17 18 20 21 21 19 16 15 15 15 14 13 12 11 10 11 11 11 11 10 10 11 8 4 4 6 9 9 7 7 12 16 20 25 30 33 36 37 35 34 33 33 34 34 35 34 33 33 32 30 28 27 25 24 22 22
26 25 24 23 22 22 21 19 17 17 17 17 18 18 18 18 19 18 18 17 18 19 18 18 16 15 14 14 13 10 8 8 8 10 10 11 11 11 10 11 7 3 5 8 10 11 10 9 10 13 14 19 24 29 33 34 34 34 34 33 33 34 35 36 36 35 34 33 32 30 28 26 25 24
27 26 25 24 24 23 21 20 20 20 19 18 18 18 18 19 19 19 19 18 17 16 14 14 14 13 12 12 11 10 9 11 11 12 12 11 12 12 11 12 10 7 8 10 11 12 12 11 11 12 11 13 17 22 26 29 32 34 34 34 34 34 35 36 37 37 37 36 34 33 31 29 28 26
28 27 27 26 25 24 23 21 20 20 19 19 20 19 19 20 19 20 21 21 21 20 19 19 16 14 13 13 13 13 14 16 15 15 15 13 13 13 13 13 12 9 8 9 10 11 12 13 13 12 11 10 13 17 20 22 26 30 34 35 35 35 34 35 36 36 37 37 35 34 33 31 30 29
29 28 27 27 25 24 22 19 17 17 18 19 19 20 20 20 19 19 19 18 19 21 23 24 21 17 15 15 15 14 15 16 14 13 14 14 14 14 13 13 11 8 7 6 8 10 10 12 14 14 11 10 12 15 17 18 20 25 30 33 34 34 33 33 34 34 35 36 36 35 34 33 31 31
30 29 28 27 25 23 20 16 13 13 15 17 18 19 19 19 18 17 15 12 12 14 17 19 20 17 14 13 13 13 13 13 10 9 11 12 13 13 12 11 9 7 5 4 6 9 7 7 12 15 13 12 14 14 15 16 19 23 27 29 30 31 32 32 32 32 33 34 34 34 34 34 33 32
30 30 30 28 26 24 20 15 11 11 14 16 18 19 19 19 18 16 13 11 10 11 13 14 16 17 15 13 12 12 14 13 11 11 11 10 10 11 11 10 9 7 6 5 7 9 8 6 10 12 13 13 15 15 14 15 17 21 23 25 27 29 30 31 31 31 31 32 32 33 33 33 33 33
31 31 32 30 27 24 21 16 12 12 14 15 17 19 19 19 19 17 14 13 12 13 14 14 16 18 18 17 17 17 17 16 15 16 15 10 9 10 10 10 10 10 9 6 5 9 11 9 10 10 10 12 14 15 15 15 15 17 19 21 24 26 27 29 30 30 30 31 31 32 33 33 33 34
32 32 33 31 28 25 22 19 15 14 16 17 16 17 18 19 18 15 13 12 12 12 13 13 14 14 14 15 17 18 19 19 18 20 18 14 12 12 12 12 12 13 12 7 4 9 11 10 10 9 9 11 12 12 15 15 15 16 16 17 21 24 25 26 28 29 30 30 30 31 32 33 34 35
31 32 34 33 30 26 23 21 17 15 17 17 14 13 15 16 13 10 10 11 11 12 13 13 13 13 12 12 13 14 16 18 20 21 21 19 18 16 16 15 15 14 13 9 6 11 13 12 11 9 10 13 12 10 12 14 15 15 16 15 17 21 24 26 26 27 28 30 30 31 32 33 34 35
32 32 34 33 31 28 25 22 19 17 17 17 15 12 12 13 11 9 10 11 11 13 13 13 13 14 13 14 14 14 15 16 18 21 22 21 21 19 17 17 17 17 14 9 8 11 14 14 13 11 11 11 10 8 8 11 14 15 16 16 14 16 20 23 25 27 27 29 30 31 32 33 34 35
35 32 31 31 30 30 27 24 22 20 17 17 18 16 15 14 12 9 10 12 13 15 15 14 15 15 14 14 14 14 15 14 14 17 20 21 21 20 17 17 18 18 15 11 10 12 14 16 15 13 12 10 9 8 6 7 11 12 13 14 13 14 16 18 20 23 24 25 28 30 32 32 33 35
36 33 31 28 26 28 28 26 24 22 18 17 19 17 15 14 13 10 11 13 14 14 15 15 15 14 15 15 15 16 16 15 14 15 17 19 20 20 18 17 18 19 17 15 14 14 17 18 16 13 12 11 10 9 6 4 7 9 11 14 13 13 15 15 15 17 19 20 22 24 27 28 28 30
38 34 29 26 24 24 27 27 25 23 21 21 20 16 14 16 16 15 14 14 15 15 16 16 15 14 14 15 16 16 17 16 16 16 17 18 19 20 20 19 19 20 19 19 18 17 18 19 17 14 12 11 10 9 7 5 5 7 9 11 12 13 15 14 12 14 17 20 21 22 24 26 27 27
39 33 26 24 24 24 25 25 24 23 23 23 20 17 17 19 19 18 17 16 16 17 18 18 18 17 15 15 16 16 15 15 16 16 16 16 16 17 19 19 20 21 21 21 21 20 18 18 17 16 14 13 11 10 9 7 4 4 6 7 8 11 14 14 13 14 15 17 19 20 22 24 27 28
36 33 26 23 24 25 25 24 25 25 24 23 23 21 21 20 19 19 21 19 17 16 16 16 18 19 17 16 16 16 16 16 16 17 17 16 16 16 17 19 21 23 24 23 22 20 19 18 17 17 17 16 14 12 12 9 5 3 4 5 5 6 8 10 13 16 16 15 15 16 16 18 21 24
30 32 29 26 24 25 26 25 25 26 26 26 26 24 22 21 21 22 23 21 18 17 16 16 17 17 16 16 16 15 16 17 18 18 18 18 18 17 17 19 21 22 23 23 22 21 20 20 19 18 18 18 16 14 13 11 9 7 6 7 6 4 3 6 10 13 15 15 16 16 17 17 18 20
27 27 29 30 27 25 27 27 26 27 29 29 29 25 23 24 25 24 22 20 18 18 18 18 18 18 18 18 17 16 16 16 17 18 19 19 20 20 20 21 21 20 21 22 23 22 22 21 20 19 19 19 19 17 15 14 13 11 10 9 8 7 6 5 7 8 11 12 13 15 16 17 18 18
32 27 26 28 27 27 29 30 29 28 29 29 29 27 25 25 25 23 21 19 18 17 17 17 18 19 19 19 19 18 18 18 17 16 17 17 18 19 20 21 20 20 20 21 22 23 23 22 21 20 20 20 20 20 17 15 13 12 12 11 9 9 9 6 5 7 9 9 9 11 13 15 15 16
38 32 26 24 26 29 31 31 30 30 30 29 28 29 28 26 24 22 21 18 17 17 17 17 17 18 18 19 19 18 18 20 20 19 18 18 18 18 20 20 20 20 20 19 19 20 23 23 22 21 21 21 21 21 20 18 16 14 13 12 11 11 10 7 7 10 10 7 7 9 11 13 13 13
36 32 28 26 26 29 33 33 32 31 30 28 27 26 26 25 23 22 20 19 18 19 18 16 16 16 17 18 19 19 18 18 18 19 20 20 21 22 22 22 22 22 21 19 17 18 20 23 22 21 21 22 22 22 22 21 21 19 17 14 13 12 10 9 11 12 9 7 8 10 12 12 12 11
37 30 29 31 29 27 31 35 33 29 26 24 22 22 22 23 22 20 20 20 20 18 17 15 15 16 16 16 17 19 19 18 17 17 18 19 20 22 22 22 23 23 22 21 19 17 19 23 23 22 22 21 22 24 25 23 23 23 21 18 15 13 12 13 15 14 11 9 10 12 11 10 9 9
41 32 30 34 33 28 30 33 32 28 25 21 21 22 22 22 21 20 20 20 20 19 18 17 16 16 16 16 17 17 17 17 17 16 17 18 19 20 21 21 22 23 22 23 21 18 19 23 23 22 23 22 22 24 24 22 21 23 23 22 19 16 15 17 18 17 14 12 13 12 8 7 8 8
42 39 34 34 33 29 30 31 29 28 26 24 24 25 24 22 21 19 19 20 20 20 20 19 18 17 17 17 17 18 17 17 17 16 16 17 17 18 20 20 21 21 21 22 21 19 20 23 23 22 23 23 22 21 19 18 20 22 21 21 21 18 17 19 19 17 15 14 15 13 9 9 10 9
38 40 36 32 30 30 29 29 28 28 28 28 28 27 24 22 20 18 18 20 22 21 21 20 19 19 18 17 17 18 19 19 19 18 18 18 17 17 17 18 18 19 19 20 21 20 21 23 23 23 24 24 23 20 18 17 19 19 17 18 19 18 19 20 19 16 15 16 17 15 12 12 13 11
31 33 32 30 29 28 27 27 28 29 31 31 30 27 24 22 19 18 18 20 22 22 21 21 19 19 19 18 17 17 18 19 19 20 20 20 18 18 18 18 18 18 18 20 22 22 22 23 24 24 24 23 21 19 17 16 17 17 16 16 17 18 20 21 19 16 15 17 18 17 14 14 14 14
28 28 27 26 27 27 26 26 27 27 27 27 26 24 23 21 19 18 18 19 20 21 21 20 19 19 19 17 16 15 15 15 15 16 18 19 18 17 17 19 20 19 19 21 23 23 23 24 23 22 22 20 17 17 18 17 18 18 16 14 13 14 19 24 22 17 14 16 18 18 16 14 14 14
27 27 27 26 27 28 27 26 24 22 21 22 22 22 21 20 19 18 17 17 17 18 18 18 18 18 18 16 15 15 15 15 14 13 14 16 18 18 18 19 21 21 20 21 22 21 21 21 21 20 20 18 17 20 21 19 18 17 16 16 14 13 17 22 22 18 16 16 17 16 15 15 15 16
23 27 29 30 29 28 26 24 22 20 19 19 20 20 20 20 18 17 17 17 16 16 16 17 17 16 16 16 15 15 16 16 16 15 15 15 17 19 19 18 17 18 19 19 19 19 19 20 20 21 20 18 17 20 21 19 18 17 16 17 17 15 15 17 19 19 18 18 17 16 16 17 17 17
16 21 26 27 26 25 24 23 21 19 18 18 19 20 20 18 17 16 17 17 16 16 16 16 15 15 15 16 16 16 16 16 15 15 15 14 15 17 18 16 15 15 16 17 18 19 19 18 19 21 20 17 17 20 20 19 19 18 18 17 16 14 14 16 17 18 17 17 17 17 17 18 18 17
13 16 18 19 20 20 20 20 19 18 18 18 19 19 18 17 16 16 17 16 16 16 16 15 15 15 15 15 15 15 15 15 14 13 13 13 15 16 17 16 16 16 16 17 18 20 18 16 16 18 18 15 16 19 19 18 19 19 18 17 15 14 13 14 15 16 16 17 18 18 18 19 20 20
Wind_Direction
242 241 242 245 247 247 248 249 251 253 255 256 257 259 262 267 274 280 282 281 279 281 273 275 294 286 264 260 250 255 273 282 289 292 285 271 265 262 259 259 259 259 259 255 247 241 245 249 250 254 257 251 248 243 227 208 196 195 201 209 208 172 141 121 136 167 187 199 205 208 208 204 198 195
245 244 243 244 246 247 248 249 250 251 251 252 252 254 255 257 261 267 274 278 276 274 272 270 272 269 265 265 257 255 263 269 280 291 291 282 272 265 259 258 257 256 256 255 250 238 234 239 241 241 244 247 248 247 242 227 211 204 202 204 212 218 217 210 124 130 154 179 197 206 211 211 204 198
245 246 246 246 246 247 247 247 249 249 248 247 249 250 248 249 253 257 265 272 271 265 271 274 265 263 268 266 261 258 258 264 273 283 289 290 283 272 264 259 255 254 254 253 251 243 231 229 234 234 232 235 241 243 242 237 229 223 214 208 210 215 222 235 251 247 143 147 158 182 201 209 209 204
242 244 246 249 250 248 245 244 245 246 244 243 244 245 244 244 249 252 257 264 268 266 269 276 272 267 270 271 270 271 271 272 277 283 289 292 290 282 271 263 257 253 252 253 251 245 237 228 228 231 228 226 229 235 238 233 232 234 229 221 216 214 220 228 237 249 245 198 153 147 165 188 200 203
243 244 247 249 251 249 246 243 241 239 239 239 240 241 241 243 244 247 251 259 268 272 270 272 275 273 276 279 279 280 283 284 285 284 285 288 291 291 281 270 262 255 251 252 250 246 241 234 228 227 226 224 223 226 229 224 225 232 232 231 229 224 224 227 230 236 244 247 248 242 218 172 179 189
248 248 249 251 253 253 251 249 244 239 233 230 234 239 238 240 242 242 247 256 266 273 274 272 274 274 273 277 280 281 285 288 288 284 282 287 293 295 290 276 266 259 253 251 250 247 244 239 233 227 224 223 221 220 220 217 222 230 227 225 231 234 233 234 233 231 235 245 249 245 248 257 229 176
251 248 247 249 250 252 254 253 249 244 239 232 231 236 236 238 241 241 243 252 262 271 275 274 274 275 274 276 280 283 284 285 285 285 286 290 293 293 292 285 275 265 257 252 250 247 244 242 238 231 225 222 220 219 216 215 219 225 223 220 225 233 237 241 242 238 235 240 244 244 247 252 251 247
249 246 244 244 245 247 250 252 251 249 247 240 235 235 237 238 239 241 243 248 256 267 273 274 274 275 277 276 274 273 275 278 280 285 289 289 289 291 293 292 283 271 262 256 252 249 245 243 242 238 231 225 221 219 215 213 216 217 217 219 223 229 235 239 244 245 244 243 243 242 244 249 251 250
246 244 243 241 241 242 244 246 249 250 251 248 243 240 240 240 239 240 242 246 252 260 268 273 275 275 277 277 275 275 277 278 278 280 285 287 289 294 297 295 288 279 272 262 255 252 247 243 242 241 238 232 226 222 218 214 216 216 213 214 219 224 229 232 236 241 245 247 247 245 242 244 247 248
243 241 240 240 239 238 239 242 246 250 252 251 247 243 242 241 241 240 241 245 250 256 262 269 273 277 280 281 282 284 283 281 281 282 285 288 289 291 294 296 294 287 281 273 261 253 249 244 241 241 240 237 231 226 222 218 218 217 213 212 216 220 225 228 229 231 235 239 244 247 247 247 247 248
240 238 237 238 237 235 236 239 241 245 249 249 248 246 244 243 241 240 241 242 244 250 256 263 270 275 281 283 284 286 283 279 278 278 279 281 283 281 282 287 292 293 290 285 272 258 250 245 241 239 239 238 235 231 226 222 220 219 216 214 215 217 220 226 227 224 224 226 230 235 240 245 248 249
237 236 235 235 235 232 231 231 232 235 241 247 250 249 247 246 245 244 243 242 244 248 252 258 266 272 277 280 282 283 283 282 281 279 276 278 281 283 281 280 283 286 283 279 277 270 260 251 244 240 239 239 238 236 232 227 223 221 219 217 217 217 218 222 226 225 222 222 222 225 227 232 238 242
234 234 232 231 229 227 225 224 230 237 242 247 252 254 253 251 250 250 248 246 246 248 252 257 260 263 269 274 277 280 281 281 284 285 279 277 278 281 286 285 278 277 279 280 281 278 271 262 252 244 241 240 239 239 237 234 229 224 222 220 220 221 220 221 224 226 226 224 223 223 223 223 225 229
230 229 228 228 225 221 220 224 232 240 245 249 253 256 258 256 254 252 250 249 246 244 246 251 251 250 256 264 271 280 287 285 281 281 278 278 282 284 290 291 288 295 305 301 295 290 285 280 268 253 244 240 239 240 239 238 235 230 226 224 223 223 223 223 224 226 227 227 226 224 223 221 220 221
225 224 224 224 221 218 220 225 233 240 247 251 253 254 256 259 258 255 254 252 248 243 243 247 248 245 249 258 267 278 292 297 288 283 281 281 280 280 289 294 300 332 323 290 284 278 261 262 270 264 252 244 240 239 240 240 239 236 231 228 227 226 226 225 225 226 227 227 227 226 225 223 221 220
222 219 221 221 221 222 225 229 234 239 243 247 251 252 254 257 259 260 260 259 254 248 246 247 249 248 249 260 269 276 292 298 292 290 289 285 281 278 284 288 286 300 302 288 275 257 229 222 247 255 256 252 243 239 240 239 239 238 235 232 229 227 227 226 226 227 228 228 228 228 227 225 222 221
220 217 218 220 222 226 229 233 238 239 238 241 245 248 250 253 255 256 257 260 260 258 256 253 252 254 256 261 270 279 292 293 292 295 294 290 288 282 279 282 274 262 277 287 280 260 236 230 246 241 236 247 245 242 242 240 237 236 235 233 231 228 226 226 226 226 227 229 230 229 229 228 226 224
220 217 218 220 225 229 232 235 239 241 240 238 238 240 243 246 248 247 246 246 247 250 259 265 266 265 263 266 273 278 283 286 288 292 291 286 286 279 271 275 273 259 267 282 286 272 240 230 248 246 223 224 232 233 239 241 238 235 232 231 231 229 227 225 225 226 227 229 231 231 230 230 229 227
221 218 219 222 227 231 233 232 236 242 242 237 235 236 240 243 246 247 246 244 242 244 255 265 272 275 269 267 272 272 275 281 281 281 279 275 276 274 266 267 269 262 269 278 284 283 256 236 255 260 239 229 232 230 234 239 239 237 235 233 232 231 231 228 225 225 225 227 229 231 231 231 230 229
222 219 219 223 226 229 230 227 231 241 239 233 232 235 239 243 247 250 251 253 251 248 251 260 271 281 282 278 276 273 274 280 283 279 271 263 265 269 266 268 268 259 267 283 287 292 278 240 252 258 250 250 253 248 245 245 244 243 241 238 235 233 232 232 230 227 225 225 226 228 229 231 231 231
222 222 221 221 223 226 229 226 221 227 232 231 231 235 238 241 245 249 251 251 253 254 255 258 263 270 276 277 271 263 259 260 267 276 272 259 259 265 265 270 271 261 269 290 290 287 280 251 249 253 248 249 253 251 248 245 245 249 247 242 237 234 231 232 232 230 227 225 224 224 225 227 229 231
222 222 223 222 222 222 225 223 213 215 229 235 232 232 235 239 243 249 252 253 257 259 258 257 254 253 255 256 255 254 250 246 251 261 264 256 256 266 269 274 282 277 268 271 284 279 275 270 263 254 247 247 247 245 244 240 238 243 248 245 240 236 233 231 230 229 229 226 223 222 222 223 225 227
225 224 224 223 223 222 220 218 210 209 227 240 237 230 233 239 242 247 253 256 259 260 259 261 260 256 253 249 247 247 246 242 242 250 256 255 251 258 266 273 287 283 259 243 294 295 286 283 271 253 248 255 252 243 241 241 238 234 239 244 241 236 234 233 230 228 227 226 225 223 221 221 222 224
225 227 227 224 223 223 219 215 211 210 223 238 238 223 226 239 247 251 255 257 259 262 261 261 261 261 261 257 250 245 241 235 231 234 243 250 249 252 256 258 270 271 245 224 268 291 291 292 280 264 259 257 253 246 239 238 239 232 227 232 237 235 233 231 231 229 226 224 225 224 222 221 220 222
223 227 230 229 227 224 218 214 215 215 221 232 237 234 240 255 264 263 260 260 264 266 264 261 259 257 255 254 254 251 246 237 228 225 229 238 244 247 245 244 251 254 243 236 265 281 287 293 290 292 292 272 259 268 256 232 231 232 229 228 227 228 232 231 229 229 227 225 224 222 222 221 220 221
223 225 230 231 228 223 217 213 216 221 221 225 233 242 255 263 265 262 263 267 272 272 269 266 265 261 255 249 247 247 248 244 237 231 227 230 239 244 241 241 247 250 250 256 268 272 276 282 286 294 302 292 277 285 282 230 217 220 227 231 225 218 224 229 229 227 226 225 225 223 222 221 221 222
222 223 226 227 225 222 218 214 216 221 219 217 223 232 243 251 253 249 247 252 258 265 267 266 262 256 251 247 244 243 244 244 244 242 235 231 236 240 240 242 248 252 256 260 264 266 267 271 276 282 291 296 289 287 290 249 213 202 206 220 227 223 220 221 221 220 218 220 224 225 224 222 222 223
223 222 223 221 217 218 218 216 215 218 219 218 221 227 232 237 239 233 232 241 250 255 259 260 256 248 241 243 246 247 246 246 247 248 246 241 239 239 240 244 250 255 259 258 258 261 264 266 268 273 285 296 293 287 291 275 232 201 195 206 216 220 222 222 216 208 207 213 218 220 221 220 219 219
224 221 220 219 217 215 216 217 216 218 221 221 222 225 228 233 237 236 238 252 260 256 252 252 253 252 246 243 247 251 250 247 245 245 249 249 245 241 242 247 251 252 254 254 252 253 258 261 263 269 275 281 282 281 286 285 255 199 189 197 199 204 215 222 216 206 207 215 219 221 223 223 221 220
226 220 214 214 217 215 214 217 219 221 222 220 219 223 229 236 242 242 245 257 265 260 251 246 248 252 254 251 249 249 249 246 240 238 241 243 245 244 244 247 249 249 249 251 252 254 256 257 260 265 267 269 272 273 278 284 282 240 211 207 196 192 203 209 205 202 205 209 212 217 223 225 224 223
225 222 213 208 211 215 215 217 220 221 218 215 218 224 231 238 241 242 248 259 266 261 253 247 244 245 247 249 250 250 250 247 241 237 235 234 236 241 243 247 251 253 253 254 254 254 255 256 257 258 260 262 265 266 268 271 269 262 252 246 249 252 221 198 200 204 205 204 205 209 214 218 222 223
213 218 214 210 210 214 216 216 216 215 213 216 223 228 233 240 243 243 248 258 264 261 257 253 249 245 240 239 241 244 247 247 243 239 237 234 233 234 237 243 250 253 255 257 256 253 252 254 256 257 257 257 258 259 262 267 265 259 254 251 254 262 250 214 203 211 212 210 214 217 218 221 226 228
204 206 211 213 212 212 214 215 214 212 212 219 226 230 234 242 247 247 249 255 259 259 257 255 253 252 249 245 241 239 238 239 238 238 241 241 236 233 234 238 244 250 254 258 259 258 254 252 253 255 254 253 253 253 252 255 258 255 249 241 233 242 250 237 213 223 230 227 225 227 228 228 227 229
206 204 205 210 212 212 213 213 212 213 216 221 227 232 238 243 245 247 252 255 252 249 250 252 252 252 253 252 249 244 239 236 235 235 237 239 237 236 236 237 241 248 253 253 253 255 257 253 249 249 250 248 249 251 249 245 243 244 245 240 228 230 242 239 226 235 244 235 217 219 228 231 227 224
207 206 207 207 209 212 214 213 213 215 220 224 227 233 240 240 238 243 251 253 247 244 247 251 251 250 250 251 251 249 244 240 236 234 234 235 236 238 239 240 241 243 244 245 244 244 251 253 248 243 244 244 245 247 248 243 239 238 239 238 229 226 231 229 228 235 238 223 215 222 228 231 227 221
203 202 206 206 204 206 210 211 213 214 216 219 221 224 232 237 237 241 247 246 242 242 245 249 250 251 252 251 251 250 248 245 241 236 232 232 234 236 237 238 240 240 238 240 241 237 239 247 248 243 240 240 240 242 244 242 240 238 237 237 233 226 224 226 229 235 234 225 230 237 235 233 236 232
203 199 203 205 204 205 206 209 213 214 212 214 219 221 228 237 241 242 244 243 241 240 243 247 250 252 254 254 252 251 249 246 244 238 233 231 232 234 236 237 241 243 241 239 240 237 233 238 243 243 238 233 234 240 244 245 242 238 235 236 236 230 225 230 236 239 235 229 233 240 233 227 242 248
205 202 204 206 208 210 210 211 214 216 215 218 223 227 233 240 244 242 239 238 239 240 242 246 248 250 253 254 252 250 248 246 243 239 236 235 232 233 235 237 240 245 245 242 241 238 232 231 237 242 239 231 227 230 234 237 241 240 235 235 237 232 229 235 242 243 235 228 231 234 221 214 233 249
209 207 209 210 209 210 213 215 216 218 221 225 230 236 240 241 240 239 237 237 238 241 244 248 249 247 248 251 252 251 248 245 245 243 240 239 238 236 236 236 238 243 246 245 243 241 235 233 237 242 241 234 228 227 230 236 246 250 242 234 234 229 224 230 241 241 228 220 225 229 221 217 229 243
212 211 211 212 212 210 211 215 216 220 227 231 235 240 240 234 233 239 242 241 240 241 245 251 250 246 246 249 250 249 245 244 245 246 246 245 244 243 243 243 243 243 242 243 244 243 240 239 239 241 244 243 237 234 237 240 245 248 241 231 229 224 218 224 235 237 224 217 221 225 223 222 229 235
211 211 207 206 207 205 205 210 216 223 230 233 233 232 228 225 231 242 248 247 244 242 245 249 249 245 246 247 245 241 240 241 243 244 246 247 244 241 239 239 239 238 239 242 244 241 239 243 245 245 249 250 238 226 224 224 228 236 237 231 228 222 215 220 228 232 224 220 220 220 221 226 231 234
201 204 202 199 199 201 205 212 219 225 226 222 219 218 218 222 232 244 250 249 245 241 241 244 243 242 243 244 241 237 236 238 240 242 245 244 240 236 235 235 236 235 234 239 243 239 236 241 245 243 244 242 226 217 218 219 222 231 234 230 229 224 215 217 224 228 229 230 225 219 219 223 228 232
188 194 197 198 201 207 212 216 217 218 216 211 209 211 217 224 234 245 249 246 241 238 237 238 237 237 239 241 242 241 239 239 242 244 244 242 237 233 232 236 243 241 231 230 235 237 237 241 239 232 230 230 220 216 219 219 218 224 229 230 231 227 218 217 222 225 230 233 229 220 220 223 226 229
190 191 194 197 202 208 210 210 212 216 217 213 211 214 219 227 238 247 246 240 237 236 236 236 235 235 238 240 242 244 242 240 240 243 243 238 230 224 220 225 241 247 235 226 230 236 241 243 231 217 216 223 223 220 218 214 214 222 230 234 234 230 221 219 221 221 223 227 225 222 223 228 231 231
188 188 191 194 198 200 202 207 213 217 215 212 212 217 224 234 244 245 240 237 236 235 235 236 235 234 236 240 242 243 241 238 238 243 244 232 221 219 221 225 236 244 238 230 232 238 242 238 223 213 217 226 227 223 221 217 218 226 233 238 240 238 230 224 221 218 218 221 223 224 226 229 233 234